Wind_Speed
15 14 14 13 13 13 13 13 12 11 11 10 10 9 9 8 8 7 7 6 6 5 5 6 6 6 5 5 5 5 5 4 4 4 4 3 3 3 3 3 3 4 4
16 16 15 14 14 14 14 14 14 13 12 11 10 10 10 9 9 9 8 8 7 7 6 7 7 7 7 6 6 6 5 5 5 4 4 4 4 4 4 4 4 4 5
18 17 16 16 15 15 14 14 14 14 14 13 12 11 10 10 10 10 10 9 9 8 8 8 7 8 8 7 7 7 6 6 6 5 5 5 5 5 5 5 5 5 6
19 19 18 18 17 16 16 15 15 15 15 14 13 12 12 11 11 11 11 11 10 10 10 9 9 9 9 9 9 8 8 8 7 6 6 6 6 6 6 7 7 7 7
21 20 20 20 19 18 18 17 16 15 15 15 14 14 13 13 13 12 12 12 12 11 11 10 10 10 10 10 10 10 10 9 9 8 8 8 7 7 7 7 7 7 7
23 22 22 21 21 19 18 18 17 17 16 16 15 15 15 14 13 13 13 13 13 13 12 12 12 11 11 11 12 12 11 11 11 10 9 9 9 8 8 8 8 9 8
25 24 24 23 22 21 20 19 19 18 18 17 16 16 15 15 15 14 15 14 14 14 14 14 13 13 13 13 13 13 13 13 13 13 12 11 11 10 10 10 10 10 10
27 26 26 25 24 23 22 21 21 20 19 19 18 17 17 16 16 16 16 16 16 16 16 15 15 15 15 14 14 14 14 14 14 14 13 13 12 12 12 12 11 11 12
28 28 27 26 25 25 24 23 23 22 21 20 20 19 18 18 18 18 17 17 17 17 17 16 16 16 16 16 15 15 16 15 15 15 15 14 14 14 14 13 13 13 13
30 30 30 28 27 27 26 25 24 24 23 23 22 21 20 19 19 19 19 19 19 19 19 18 18 17 17 17 17 17 17 17 16 16 16 16 15 15 15 15 15 15 15
32 31 30 30 29 28 27 26 26 26 25 25 24 23 22 21 21 20 20 20 20 20 20 20 20 19 19 19 18 18 18 18 18 17 17 17 17 17 17 17 17 17 17
33 32 32 31 31 30 28 27 27 27 27 26 26 25 24 23 22 22 22 21 21 21 21 21 21 21 21 21 20 20 20 19 19 19 19 19 19 19 19 19 19 19 19
35 34 33 33 32 31 30 29 28 28 28 27 27 27 26 25 25 24 24 23 23 23 23 23 23 23 23 22 22 22 22 21 21 21 21 21 21 21 21 21 21 21 21
37 36 35 35 34 33 32 31 30 30 29 29 28 28 27 27 26 26 26 26 25 25 24 24 24 24 24 24 24 24 23 23 24 23 23 23 23 23 22 22 23 22 22
38 38 37 36 36 35 34 33 32 32 31 30 30 29 28 28 28 28 27 27 27 27 26 26 26 26 25 26 26 26 25 25 26 26 25 25 25 25 25 25 25 24 24
40 40 39 38 38 37 36 35 34 34 33 31 31 31 31 30 30 29 29 29 29 29 28 28 28 27 27 27 27 27 27 27 27 28 27 27 26 26 26 26 27 26 26
42 41 41 40 39 39 38 37 37 36 35 34 33 32 32 32 32 31 30 30 30 30 30 30 30 29 28 28 28 28 28 28 28 28 28 28 28 28 28 28 29 29 29
43 43 42 41 40 40 39 39 38 37 37 36 35 34 34 34 33 33 32 32 31 31 31 31 31 30 30 29 29 30 30 29 29 29 29 30 30 30 30 30 30 30 31
43 44 43 42 41 41 41 40 39 39 38 38 37 36 34 35 34 34 33 33 32 32 32 32 32 32 32 31 30 30 30 30 31 30 30 31 31 31 32 32 32 32 33
44 43 44 43 43 42 42 41 40 40 40 39 39 38 37 36 36 35 34 33 33 33 32 32 33 33 33 32 31 31 31 31 31 31 31 31 31 32 32 32 33 34 34
44 44 44 44 44 43 43 42 42 42 41 41 40 40 38 37 36 36 35 35 34 34 34 33 33 33 33 33 32 32 32 32 31 32 32 32 33 33 33 33 33 34 34
45 45 45 45 45 45 44 44 43 43 43 42 41 40 39 38 37 37 37 36 35 35 35 34 34 34 34 35 34 34 34 34 33 33 34 34 35 35 35 35 35 34 34
46 45 45 45 45 45 45 45 44 44 44 43 43 42 40 40 39 38 38 37 37 36 36 36 36 35 35 36 36 36 35 35 35 35 35 35 35 36 36 36 36 36 36
46 46 46 45 45 45 45 45 45 45 44 44 44 44 42 41 41 40 39 39 38 38 38 38 37 37 37 37 37 37 36 36 36 36 36 36 36 36 37 37 37 37 37
46 46 46 46 46 46 46 46 45 45 45 44 44 44 44 43 42 42 42 41 41 40 39 39 39 39 39 39 38 38 37 36 37 37 37 36 36 36 36 37 37 37 38
46 46 47 47 47 47 46 46 46 45 45 45 45 45 45 44 44 43 42 43 43 42 41 41 41 41 41 41 40 40 39 38 37 37 37 36 36 36 36 36 37 38 39
Wind_Direction
241 241 242 243 243 241 238 236 233 232 231 230 230 230 230 231 230 231 234 238 239 242 245 247 248 253 260 266 269 273 280 287 298 297 299 300 299 297 304 316 321 329 334
242 242 242 243 243 242 239 237 236 235 235 235 234 233 233 233 234 235 238 241 244 244 247 248 250 252 257 262 268 272 276 279 285 290 296 298 294 291 295 300 305 314 323
242 241 242 243 243 242 240 238 238 237 237 237 237 236 236 237 237 238 239 241 245 248 249 251 255 254 256 259 265 268 272 275 278 283 291 296 293 290 289 291 295 304 312
240 239 240 241 242 241 240 240 239 239 238 238 238 238 238 238 240 240 241 243 246 248 250 251 254 255 258 260 264 266 268 270 273 278 284 287 289 289 288 288 288 293 299
239 238 238 239 241 242 240 241 240 240 240 240 240 239 239 240 241 240 242 244 245 246 249 251 253 255 257 259 262 265 266 267 269 273 277 280 282 284 285 287 288 292 293
239 238 237 238 239 240 240 240 241 241 241 241 242 241 240 242 243 242 243 244 244 246 248 251 254 255 257 258 259 263 266 265 266 269 271 274 276 278 279 281 285 287 289
240 238 238 238 238 239 240 241 242 243 242 241 242 243 242 243 244 244 244 245 247 248 249 250 253 255 256 258 260 262 264 264 265 265 267 269 271 274 275 276 278 281 282
240 239 238 238 238 239 240 241 241 242 243 242 242 243 244 244 245 245 246 247 248 249 250 251 253 255 257 259 260 261 262 265 266 266 266 266 268 270 273 275 277 279 279
240 240 239 238 238 239 240 240 241 241 243 243 243 244 245 245 245 245 247 249 250 250 251 252 254 255 256 258 260 260 260 264 265 265 265 266 266 269 272 274 275 275 276
240 240 239 239 239 240 240 240 240 240 242 243 243 244 245 246 246 247 248 251 251 251 252 253 254 256 257 258 259 260 261 262 264 265 264 264 266 268 270 272 273 273 275
240 240 239 238 238 239 240 240 240 240 241 242 243 244 245 246 247 248 248 251 252 253 253 253 254 256 257 258 259 260 261 262 263 264 264 264 266 268 270 272 273 274 274
240 240 239 239 238 238 239 239 240 241 242 243 244 244 245 246 246 248 250 251 253 254 255 254 254 255 257 258 259 260 261 262 263 264 265 265 266 267 269 271 272 273 274
239 239 239 239 239 239 239 239 239 241 242 243 244 245 246 247 247 249 250 252 253 255 256 257 256 256 257 257 259 260 261 263 265 265 265 266 266 267 268 270 272 272 273
239 239 239 239 239 239 240 240 239 240 242 243 244 245 246 248 248 250 251 253 254 255 256 258 259 259 259 259 260 261 263 264 266 266 266 266 266 267 268 270 272 272 273
238 238 238 239 239 239 239 239 239 240 242 244 245 245 246 248 249 251 252 253 254 255 256 258 260 260 260 260 260 261 262 264 265 265 266 267 267 267 268 270 271 272 273
238 238 238 238 239 239 239 239 239 240 241 243 245 246 247 248 250 251 252 253 254 255 256 257 259 261 261 260 260 261 262 263 265 265 264 265 266 267 269 270 271 272 272
238 238 239 239 239 240 240 240 240 241 242 243 244 246 247 249 250 252 252 253 254 254 256 257 258 260 261 260 261 261 263 264 265 265 264 264 266 267 269 270 271 271 272
238 238 238 239 240 240 240 240 240 241 242 244 245 246 247 248 250 251 252 253 253 255 256 257 258 259 261 261 261 262 263 264 265 265 265 265 265 267 269 270 270 271 272
238 238 238 239 240 240 240 240 241 242 243 244 245 246 248 249 250 251 252 253 253 255 256 257 258 259 260 261 262 263 264 264 265 266 266 266 266 268 269 270 270 271 272
239 239 239 240 240 241 241 241 241 242 244 245 246 248 249 250 250 251 251 252 254 255 257 258 258 259 260 260 261 263 263 264 265 266 266 266 266 268 269 270 270 271 272
239 239 240 240 240 241 241 242 242 243 244 245 246 248 249 251 251 250 251 252 254 255 257 258 258 259 259 260 262 263 263 264 265 265 266 266 267 269 270 271 271 271 272
239 240 240 241 241 241 241 241 242 243 244 245 246 247 249 250 250 249 250 251 253 254 255 256 257 258 259 260 262 263 263 264 265 266 267 267 268 270 270 271 271 272 272
239 240 240 241 241 241 242 241 242 243 244 245 246 246 247 248 249 249 249 250 252 254 255 256 257 258 259 261 262 263 264 265 266 266 268 268 269 270 270 270 270 271 272
239 240 240 240 241 241 242 242 242 243 243 244 245 245 246 247 249 250 251 250 251 253 255 256 257 258 260 262 263 263 264 265 266 266 267 268 269 270 271 270 270 271 272
239 239 239 240 240 241 241 242 242 242 242 243 244 245 246 247 248 250 250 251 252 253 254 255 257 258 260 261 263 264 265 266 266 266 267 268 269 269 270 270 271 271 272
239 239 239 240 240 240 241 242 242 242 242 243 244 245 246 247 248 250 251 251 252 253 254 255 257 258 260 261 262 264 265 266 265 266 267 268 268 269 270 270 270 272 272
Height
5840 5841 5842 5843 5845 5846 5847 5849 5850 5852 5853 5854 5855 5856 5857 5859 5860 5861 5862 5864 5865 5866 5867 5868 5869 5870 5870 5871 5871 5872 5872 5873 5873 5873 5873 5873 5874 5874 5874 5874 5874 5874 5873
5837 5838 5840 5841 5842 5844 5845 5846 5848 5850 5851 5852 5853 5855 5856 5857 5859 5860 5861 5862 5864 5865 5866 5867 5868 5869 5869 5870 5871 5871 5871 5872 5872 5872 5873 5873 5873 5873 5873 5873 5873 5873 5873
5834 5836 5837 5838 5840 5841 5843 5844 5846 5847 5849 5850 5852 5853 5854 5856 5857 5858 5860 5861 5862 5863 5864 5865 5866 5867 5868 5869 5869 5870 5870 5871 5871 5872 5872 5872 5872 5872 5872 5872 5872 5872 5872
5831 5832 5834 5836 5837 5838 5840 5842 5843 5845 5846 5848 5849 5851 5852 5853 5855 5856 5858 5859 5860 5861 5863 5864 5865 5866 5866 5867 5868 5869 5869 5870 5870 5870 5871 5871 5871 5871 5871 5871 5871 5871 5871
5827 5829 5830 5832 5834 5835 5837 5839 5840 5842 5844 5845 5847 5848 5850 5851 5853 5854 5855 5857 5858 5859 5861 5862 5863 5864 5865 5866 5866 5867 5867 5868 5869 5869 5869 5870 5870 5870 5870 5870 5870 5870 5870
5823 5824 5826 5828 5830 5832 5834 5836 5838 5839 5841 5843 5844 5846 5847 5849 5850 5852 5853 5854 5856 5857 5858 5860 5861 5862 5863 5863 5864 5865 5866 5866 5867 5867 5868 5868 5868 5868 5868 5869 5869 5869 5869
5818 5820 5822 5824 5826 5828 5830 5832 5834 5836 5838 5839 5841 5843 5844 5846 5847 5849 5850 5852 5853 5854 5855 5857 5858 5859 5860 5861 5862 5863 5863 5864 5865 5865 5866 5866 5866 5866 5867 5867 5867 5867 5867
5813 5815 5818 5820 5822 5824 5826 5828 5831 5832 5834 5836 5838 5839 5841 5843 5844 5846 5847 5849 5850 5851 5853 5854 5855 5856 5857 5858 5859 5860 5861 5862 5862 5863 5863 5864 5864 5864 5864 5865 5865 5865 5865
5808 5810 5813 5815 5818 5820 5822 5824 5827 5829 5830 5832 5834 5836 5838 5839 5841 5843 5844 5846 5847 5848 5849 5851 5852 5853 5854 5855 5856 5857 5858 5859 5859 5860 5860 5861 5861 5861 5862 5862 5862 5862 5863
5802 5805 5807 5810 5813 5815 5817 5820 5822 5824 5826 5828 5830 5832 5834 5835 5837 5839 5841 5842 5844 5845 5846 5847 5849 5850 5851 5852 5853 5854 5855 5855 5856 5857 5857 5858 5858 5858 5859 5859 5859 5859 5860
5796 5799 5801 5804 5807 5810 5812 5815 5817 5819 5822 5824 5826 5828 5829 5831 5833 5835 5836 5838 5840 5841 5842 5844 5845 5846 5847 5848 5849 5850 5851 5852 5853 5853 5854 5854 5855 5855 5855 5856 5856 5856 5856
5790 5792 5795 5798 5801 5804 5807 5809 5812 5814 5817 5819 5821 5823 5825 5827 5829 5830 5832 5834 5835 5837 5838 5839 5841 5842 5843 5844 5845 5846 5847 5848 5849 5849 5850 5850 5851 5851 5851 5852 5852 5852 5852
5782 5786 5788 5791 5794 5798 5801 5804 5806 5809 5811 5814 5816 5818 5820 5822 5824 5826 5828 5829 5831 5832 5834 5835 5836 5837 5838 5840 5841 5842 5843 5844 5844 5845 5846 5846 5847 5847 5847 5847 5848 5848 5848
5775 5778 5781 5785 5788 5791 5795 5797 5800 5803 5805 5808 5810 5812 5815 5817 5819 5821 5822 5824 5826 5827 5829 5830 5831 5832 5833 5835 5836 5837 5838 5839 5840 5840 5841 5842 5842 5842 5842 5843 5843 5843 5843
5767 5771 5774 5777 5781 5785 5788 5791 5794 5797 5799 5802 5804 5806 5809 5811 5813 5815 5817 5818 5820 5822 5823 5825 5826 5827 5828 5829 5830 5832 5832 5833 5834 5835 5836 5836 5837 5837 5837 5837 5837 5838 5838
5759 5763 5766 5770 5773 5777 5781 5784 5787 5790 5793 5795 5798 5800 5803 5805 5807 5809 5810 5812 5814 5816 5817 5819 5820 5821 5822 5824 5825 5826 5826 5827 5828 5829 5830 5830 5831 5831 5832 5832 5832 5832 5832
5750 5754 5758 5762 5766 5769 5773 5776 5780 5783 5785 5788 5791 5793 5796 5798 5800 5802 5804 5806 5808 5809 5811 5812 5814 5815 5816 5817 5818 5819 5820 5821 5822 5823 5823 5824 5825 5825 5826 5826 5825 5826 5826
5741 5745 5749 5753 5757 5761 5765 5768 5772 5775 5778 5781 5784 5786 5788 5791 5793 5795 5797 5799 5801 5802 5804 5806 5807 5809 5810 5811 5812 5813 5814 5815 5815 5816 5817 5818 5818 5819 5819 5819 5819 5819 5819
5732 5736 5740 5745 5749 5753 5756 5760 5764 5767 5770 5773 5776 5778 5780 5783 5785 5788 5790 5792 5794 5796 5797 5799 5800 5802 5803 5804 5805 5806 5807 5808 5808 5809 5810 5810 5811 5812 5812 5812 5812 5812 5812
5722 5727 5731 5735 5739 5744 5748 5752 5755 5759 5762 5765 5768 5770 5772 5775 5777 5780 5782 5784 5786 5788 5790 5791 5793 5794 5795 5797 5798 5799 5800 5800 5801 5802 5802 5803 5804 5804 5804 5804 5804 5804 5804
5712 5717 5722 5726 5730 5734 5738 5743 5746 5750 5753 5756 5759 5761 5764 5767 5769 5772 5774 5776 5778 5780 5782 5784 5785 5787 5788 5789 5790 5791 5792 5793 5794 5794 5795 5795 5796 5796 5796 5797 5797 5796 5796
5703 5707 5712 5716 5720 5724 5729 5733 5737 5740 5743 5747 5750 5753 5756 5759 5761 5763 5766 5768 5770 5772 5774 5776 5777 5779 5780 5781 5782 5783 5784 5786 5786 5787 5787 5787 5788 5788 5788 5788 5788 5788 5788
5693 5697 5702 5706 5710 5714 5718 5723 5727 5731 5734 5737 5741 5744 5747 5749 5752 5755 5757 5759 5761 5764 5765 5767 5769 5770 5772 5773 5774 5775 5776 5777 5778 5779 5779 5779 5779 5779 5779 5779 5779 5779 5780
5682 5687 5691 5695 5700 5704 5708 5712 5717 5721 5724 5727 5730 5734 5737 5740 5743 5745 5748 5750 5752 5754 5756 5758 5760 5762 5763 5764 5765 5766 5767 5768 5769 5769 5770 5770 5770 5770 5770 5770 5770 5771 5771
5672 5676 5681 5685 5689 5693 5697 5702 5706 5710 5714 5717 5720 5724 5727 5730 5733 5735 5738 5740 5743 5745 5747 5749 5751 5752 5754 5755 5756 5757 5758 5759 5759 5760 5760 5761 5761 5761 5761 5761 5761 5761 5762
5661 5665 5670 5674 5678 5682 5686 5691 5695 5699 5703 5707 5710 5713 5717 5720 5723 5725 5728 5730 5733 5735 5737 5739 5741 5742 5744 5745 5746 5747 5749 5750 5750 5750 5751 5751 5752 5752 5752 5752 5752 5752 5752